This is the latest recevied weather packets stored in our database for station/object N3WMC. If no packets are shown the sender has not sent any weather packets the latest 1 day(s).
| Time | Temp. | Humidity | Pressure | Rain* | Wind** | Luminosity | Snow |
|---|---|---|---|---|---|---|---|
| 1777996484 | 22.78° C | 50% | 1009.1 hPa | 0 mm | 0.45 m/s, 339° | 231 W/m² | - |
| 1777996181 | 22.78° C | 51% | 1009 hPa | 0 mm | 0.89 m/s, 242° | 735 W/m² | - |
| 1777995877 | 22.78° C | 50% | 1009 hPa | 0 mm | 1.79 m/s, 330° | 268 W/m² | - |
| 1777995574 | 22.78° C | 50% | 1008.9 hPa | 0 mm | 0.89 m/s, 252° | 262 W/m² | - |
| 1777995271 | 22.78° C | 49% | 1008.9 hPa | 0 mm | 2.68 m/s, 245° | 388 W/m² | - |
| 1777994968 | 22.78° C | 50% | 1008.8 hPa | 0 mm | 3.58 m/s, 255° | 270 W/m² | - |
| 1777994660 | 22.22° C | 50% | 1008.5 hPa | 0 mm | 2.68 m/s, 330° | 267 W/m² | - |
| 1777994359 | 22.22° C | 51% | 1008.9 hPa | 0 mm | 3.58 m/s, 290° | 306 W/m² | - |
| 1777994056 | 22.22° C | 52% | 1008.6 hPa | 0 mm | 1.34 m/s, 263° | 232 W/m² | - |
| 1777993753 | 22.22° C | 52% | 1008.5 hPa | 0 mm | 0.45 m/s, 344° | 262 W/m² | - |
| 1777993450 | 22.78° C | 52% | 1008.6 hPa | 0 mm | 2.68 m/s, 250° | 275 W/m² | - |
| 1777993150 | 22.78° C | 51% | 1008.7 hPa | 0 mm | 2.24 m/s, 253° | 609 W/m² | - |
| 1777992848 | 22.22° C | 52% | 1008.9 hPa | 0 mm | 2.68 m/s, 287° | 501 W/m² | - |
| 1777992546 | 22.78° C | 52% | 1009.3 hPa | 0 mm | 3.58 m/s, 304° | 444 W/m² | - |
| 1777992244 | 22.22° C | 51% | 1009.6 hPa | 0 mm | 3.58 m/s, 326° | 394 W/m² | - |
| 1777991941 | 22.22° C | 53% | 1009.3 hPa | 0 mm | 1.79 m/s, 223° | 306 W/m² | - |
| 1777991638 | 21.67° C | 53% | 1009.3 hPa | 0 mm | 2.24 m/s, 245° | 302 W/m² | - |
| 1777991335 | 21.67° C | 52% | 1009.4 hPa | 0 mm | 3.13 m/s, 244° | 250 W/m² | - |
| 1777991033 | 21.67° C | 53% | 1009.1 hPa | 0 mm | 2.68 m/s, 310° | 413 W/m² | - |
| 1777990730 | 21.11° C | 54% | 1009.1 hPa | 0 mm | 1.34 m/s, 249° | 194 W/m² | - |
| 1777990427 | 21.11° C | 54% | 1009.3 hPa | 0 mm | 5.36 m/s, 302° | 195 W/m² | - |
| 1777990123 | 21.11° C | 55% | 1009.3 hPa | 0 mm | 2.68 m/s, 245° | 207 W/m² | - |
| 1777989820 | 21.11° C | 54% | 1009.1 hPa | 0 mm | 3.13 m/s, 263° | 224 W/m² | - |
| 1777989518 | 20.56° C | 56% | 1009.5 hPa | 0 mm | 2.24 m/s, 154° | 198 W/m² | - |
| 1777989214 | 20.56° C | 57% | 1009.8 hPa | 0 mm | 1.34 m/s, 315° | 185 W/m² | - |
* Rain latest hour (hover to see other rain measurements)
** Current wind speed in m/s (hover to see current wind gust speed)